Hourly Data Report for September 27, 2017

All times are specified in Local Standard Time (LST). Add 1 hour to adjust for Daylight Saving Time where and when it is observed.

CLYDE RIVER A
NUNAVUT

70°29'09.000" N
68°31'01.000" W
26.50 m
2400804
71090
YCY

Download Data

Hourly Data (September 2017)
Hourly Data Report for September 27, 2017
Temp Definition
°C
Dew Point Temp Definition
°C
Rel Hum Definition
%
Wind Dir Definition
10's deg

Wind Spd Definition
km/h
Visibility Definition
km
Stn Press Definition
kPa
Hmdx Definition


Wind Chill Definition


Weather Definition


TIME
00:00 Legend Double Dagger -5.1 -7.8 82 28 21 16.1 100.88   -12 LegendNANA
01:00 Legend Double Dagger -3.7 -6.3 82 29 17 16.1 100.91   -9 LegendNANA
02:00 Legend Double Dagger -3.0 -5.7 82 28 13 16.1 100.95   -8 LegendNANA
03:00 Legend Double Dagger -2.7 -5.5 81 28 13 16.1 100.98   -7 LegendNANA
04:00 Legend Double Dagger -3.0 -5.6 82 29 15 16.1 100.97   -8 LegendNANA
05:00 Legend Double Dagger -3.0 -5.7 82 29 15 16.1 100.97   -8 LegendNANA
06:00 Legend Double Dagger -2.9 -5.6 82 29 13 16.1 101.00   -8 LegendNANA
07:00 Legend Double Dagger -2.9 -5.7 81 29 15 16.1 100.99   -8 LegendNANA
08:00 Legend Double Dagger -2.7 -5.5 81 30 17 16.1 100.94   -8 LegendNANA
09:00 Legend Double Dagger -2.4 -5.3 81 30 13 16.1 100.92   -7 LegendNANA
10:00 Legend Double Dagger -2.4 -5.3 80 30 15 16.1 100.88   -7 LegendNANA
11:00 Legend Double Dagger -2.5 -5.6 79 30 18 16.1 100.84   -8 LegendNANA
12:00 Legend Double Dagger -2.4 -5.5 79 30 11 16.1 100.83   -6 LegendNANA
13:00 Legend Double Dagger -2.7 -6.0 78 29 15 16.1 100.81   -8 LegendNANA
14:00 Legend Double Dagger -2.8 -6.0 79 28 17 16.1 100.76   -8 LegendNANA
15:00 Legend Double Dagger -2.9 -5.7 81 28 13 16.1 100.74   -8 LegendNANA
16:00 Legend Double Dagger -3.2 -5.9 82 27 13 16.1 100.70   -8 LegendNANA
17:00 Legend Double Dagger -3.5 -6.0 83 28 11 16.1 100.63   -8 LegendNANA
18:00 Legend Double Dagger -3.3 -6.0 82 28 8 16.1 100.55   -7 LegendNANA
19:00 Legend Double Dagger -3.5 -6.0 83 31 8 16.1 100.46   -7 LegendNANA
20:00 Legend Double Dagger -3.6 -6.3 82 LegendMM 4 16.1 100.38   -5 LegendNANA
21:00 Legend Double Dagger -3.9 -6.6 82 13 5 16.1 100.30   -6 LegendNANA
22:00 Legend Double Dagger -4.8 -7.0 85   0 16.1 100.23     LegendNANA
23:00 Legend Double Dagger -6.7 -8.2 89   0 16.1 100.17     LegendNANA

Notes on Data Quality.

Legend

  • E = Estimated
  • M = Missing
  • NA = Not Available
  • ‡ = Partner data that is not subject to review by the National Climate Archives
Date modified: